Date String (YYYY-MM-DD hh:mm:ss) UTC,Instrument flags,Ambient pressure (hPa),Sample flow (lpm),Bypass flow (lpm),Sample temperature (°C),Ambient temperature (°C),ASC tube jacket temperature (°C),LED temperature (°C),Box temperature (°C),Sample RH (%),Span deviation,Mass concentration (μg/m³),Mass concentration (μg/m³),Mass concentration (μg/m³)
DateTimeUTC,F1_M11,P_M11,Q1_M11,Q2_M11,T1_M11,T2_M11,T3_M11,T4_M11,T5_M11,U1_M11,ZSPAN_M11,X0_M11,X2_M11,X1_M11
2022-04-10 04:00:00,,0812.2,4.99,0.00,29.4,28.5,00.0,38.3,31.1,09.7,0000.0,0010.82,0003.86,0001.90
2022-04-10 04:01:00,,0812.3,5.00,0.00,29.4,28.5,00.0,38.3,31.1,09.7,0000.0,0010.96,0003.88,0001.91
2022-04-10 04:02:00,,0812.4,4.99,0.00,29.4,28.5,00.0,38.3,31.1,09.7,0000.0,0011.89,0003.93,0001.92
2022-04-10 04:03:00,,0812.4,5.00,0.00,29.4,28.6,00.0,38.3,31.1,09.6,0000.0,0012.68,0003.95,0001.92
2022-04-10 04:04:00,,0812.4,5.02,0.00,29.4,28.5,00.0,38.3,31.1,09.7,0000.0,0012.88,0003.94,0001.89
2022-04-10 04:05:00,,0812.4,4.98,0.00,29.4,28.5,00.0,38.3,31.1,09.7,0000.0,0012.90,0003.92,0001.89
2022-04-10 04:06:00,,0812.4,5.01,0.00,29.4,28.5,00.0,38.3,31.1,09.7,0000.0,0012.28,0003.84,0001.87
2022-04-10 04:07:00,,0812.4,5.01,0.00,29.4,28.6,00.0,38.3,31.1,09.7,0000.0,0012.27,0003.78,0001.86
2022-04-10 04:08:00,,0812.5,5.00,0.00,29.4,28.6,00.0,38.3,31.1,09.7,0000.0,0012.50,0003.80,0001.85
2022-04-10 04:09:00,,0812.5,4.99,0.00,29.4,28.6,00.0,38.3,31.2,09.8,0000.0,0013.04,0003.83,0001.86
2022-04-10 04:10:00,,0812.5,5.00,0.00,29.4,28.6,00.0,38.3,31.2,09.9,0000.0,0013.38,0003.79,0001.86
2022-04-10 04:11:00,,0812.5,5.01,0.00,29.4,28.6,00.0,38.3,31.2,10.0,0000.0,0014.05,0003.86,0001.90
2022-04-10 04:12:00,,0812.6,4.99,0.00,29.4,28.6,00.0,38.3,31.2,09.8,0000.0,0014.10,0003.81,0001.88
2022-04-10 04:13:00,,0812.6,4.99,0.00,29.4,28.6,00.0,38.3,31.2,10.0,0000.0,0013.34,0003.86,0001.91
2022-04-10 04:14:00,,0812.6,5.01,0.00,29.4,28.6,00.0,38.3,31.2,10.0,0000.0,0014.41,0003.93,0001.93
2022-04-10 04:15:00,,0812.6,5.01,0.00,29.4,28.6,00.0,38.3,31.2,09.8,0000.0,0015.27,0004.03,0001.95
2022-04-10 04:16:00,,0812.6,4.99,0.00,29.4,28.6,00.0,38.4,31.2,10.0,0000.0,0015.89,0004.07,0001.98
2022-04-10 04:17:00,,0812.6,5.02,0.00,29.4,28.6,00.0,38.4,31.2,10.2,0000.0,0016.66,0004.16,0002.01
2022-04-10 04:18:00,,0812.6,5.00,0.00,29.4,28.6,00.0,38.4,31.2,10.6,0000.0,0018.14,0004.26,0002.04
2022-04-10 04:19:00,,0812.7,5.01,0.00,29.4,28.6,00.0,38.4,31.1,11.3,0000.0,0020.00,0004.34,0002.06
2022-04-10 04:20:00,,0812.7,5.00,0.00,29.4,28.5,00.0,38.4,31.1,11.7,0000.0,0022.20,0004.47,0002.06
2022-04-10 04:21:00,,0812.8,4.99,0.00,29.4,28.5,00.0,38.4,31.1,12.8,0000.0,0025.26,0004.69,0002.06
2022-04-10 04:22:00,,0812.8,4.99,0.00,29.4,28.4,00.0,38.4,31.1,13.2,0000.0,0027.63,0004.87,0002.08
2022-04-10 04:23:00,,0812.8,5.01,0.00,29.3,28.4,00.0,38.4,31.1,13.3,0000.0,0029.58,0005.07,0002.11
2022-04-10 04:24:00,,0812.8,4.99,0.00,29.3,28.4,00.0,38.4,31.1,13.5,0000.0,0030.33,0005.25,0002.10
2022-04-10 04:25:00,,0812.8,5.01,0.00,29.3,28.4,00.0,38.3,31.1,13.6,0000.0,0029.46,0005.39,0002.10
2022-04-10 04:26:00,,0812.9,5.01,0.00,29.3,28.4,00.0,38.3,31.1,14.0,0000.0,0028.92,0005.45,0002.10
2022-04-10 04:27:00,,0813.1,5.00,0.00,29.3,28.4,00.0,38.3,31.0,14.1,0000.0,0030.53,0005.51,0002.09
2022-04-10 04:28:00,,0813.3,4.99,0.00,29.3,28.4,00.0,38.3,31.0,14.2,0000.0,0031.58,0005.58,0002.07
2022-04-10 04:29:00,,0813.4,5.01,0.00,29.3,28.4,00.0,38.3,31.0,14.2,0000.0,0032.03,0005.58,0002.05
2022-04-10 04:30:00,,0813.5,4.99,0.00,29.3,28.4,00.0,38.3,31.0,14.2,0000.0,0032.33,0005.58,0002.06
2022-04-10 04:31:00,,0813.4,5.01,0.00,29.3,28.4,00.0,38.3,31.0,14.3,0000.0,0033.03,0005.60,0002.05
2022-04-10 04:32:00,,0813.5,4.99,0.00,29.3,28.4,00.0,38.3,31.0,14.3,0000.0,0030.75,0005.51,0002.05
2022-04-10 04:33:00,,0813.5,4.99,0.00,29.3,28.4,00.0,38.3,31.0,14.3,0000.0,0028.14,0005.39,0002.02
2022-04-10 04:34:00,,0813.5,5.01,0.00,29.3,28.4,00.0,38.3,31.0,14.3,0000.0,0026.97,0005.33,0002.02
2022-04-10 04:35:00,,0813.5,5.01,0.00,29.3,28.4,00.0,38.3,31.0,14.2,0000.0,0026.55,0005.28,0002.04
2022-04-10 04:36:00,,0813.6,4.99,0.00,29.3,28.4,00.0,38.3,31.0,14.2,0000.0,0026.13,0005.20,0002.06
2022-04-10 04:37:00,,0813.6,4.99,0.00,29.3,28.4,00.0,38.3,31.0,14.2,0000.0,0026.37,0005.25,0002.08
2022-04-10 04:38:00,,0813.5,4.99,0.00,29.3,28.4,00.0,38.3,31.0,14.2,0000.0,0025.91,0005.42,0002.12
2022-04-10 04:39:00,,0813.6,5.01,0.00,29.2,28.4,00.0,38.3,31.0,14.2,0000.0,0025.17,0005.44,0002.17
2022-04-10 04:40:00,,0813.9,4.99,0.00,29.2,28.3,00.0,38.3,31.0,14.2,0000.0,0023.94,0005.51,0002.21
2022-04-10 04:41:00,,0813.8,4.99,0.00,29.2,28.3,00.0,38.3,31.0,14.2,0000.0,0022.55,0005.51,0002.22
2022-04-10 04:42:00,,0813.7,5.01,0.00,29.2,28.3,00.0,38.2,30.9,14.2,0000.0,0019.41,0005.43,0002.23
2022-04-10 04:43:00,,0813.6,4.98,0.00,29.2,28.3,00.0,38.2,30.9,14.3,0000.0,0018.57,0005.43,0002.27
2022-04-10 04:44:00,,0813.5,5.00,0.00,29.2,28.3,00.0,38.2,30.9,14.3,0000.0,0019.91,0005.48,0002.31
2022-04-10 04:45:00,,0813.8,5.01,0.00,29.2,28.3,00.0,38.2,30.9,14.3,0000.0,0020.36,0005.57,0002.33
2022-04-10 04:46:00,,0813.6,4.99,0.00,29.2,28.3,00.0,38.2,30.9,14.3,0000.0,0019.84,0005.58,0002.32
2022-04-10 04:47:00,,0813.7,4.99,0.00,29.2,28.3,00.0,38.2,30.9,14.3,0000.0,0019.95,0005.59,0002.31
2022-04-10 04:48:00,,0813.7,5.01,0.00,29.2,28.3,00.0,38.2,30.9,14.3,0000.0,0019.88,0005.56,0002.30
2022-04-10 04:49:00,,0813.5,5.00,0.00,29.2,28.3,00.0,38.2,30.9,14.3,0000.0,0018.60,0005.45,0002.29
2022-04-10 04:50:00,,0813.5,4.99,0.00,29.2,28.3,00.0,38.2,30.9,14.3,0000.0,0017.63,0005.35,0002.26
2022-04-10 04:51:00,,0813.4,5.00,0.00,29.2,28.2,00.0,38.2,30.9,14.3,0000.0,0017.16,0005.37,0002.27
2022-04-10 04:52:00,,0813.2,5.01,0.00,29.1,28.2,00.0,38.2,30.9,14.3,0000.0,0016.60,0005.42,0002.28
2022-04-10 04:53:00,,0813.1,4.99,0.00,29.1,28.2,00.0,38.2,30.9,14.3,0000.0,0016.45,0005.41,0002.30
2022-04-10 04:54:00,,0813.0,4.98,0.00,29.1,28.2,00.0,38.2,30.9,14.3,0000.0,0016.52,0005.37,0002.30
2022-04-10 04:55:00,,0812.8,5.02,0.00,29.1,28.2,00.0,38.2,30.9,14.2,0000.0,0015.58,0005.36,0002.29
2022-04-10 04:56:00,,0812.8,4.99,0.00,29.1,28.2,00.0,38.2,30.9,14.2,0000.0,0014.85,0005.32,0002.31
2022-04-10 04:57:00,,0812.8,5.00,0.00,29.1,28.2,00.0,38.2,30.9,14.1,0000.0,0015.58,0005.26,0002.34
2022-04-10 04:58:00,,0812.9,5.00,0.00,29.1,28.2,00.0,38.1,30.9,14.1,0000.0,0015.71,0005.22,0002.37
2022-04-10 04:59:00,,0812.9,5.00,0.00,29.1,28.2,00.0,38.1,30.9,14.1,0000.0,0015.28,0005.16,0002.41
